Find Yamal-201

NORAD ID: 28094 Int'l Des: 2003-053 Owner: GAZC Country: RU operational
MEOCIRCULARGSO

Live-Position

3D-Globus wird geladen...

Über Yamal-201

Beschreibung wird geladen...

Nächste Überflüge

Passes for default location (London). Set your location on the main map for personalized predictions.

Höhenverlauf

Loading altitude history...

Zweizeiliger Elementsatz

1 28094U 03053B 26105.88397992 -.00000046 00000-0 00000-0 0 9994
2 28094 9.4727 56.1728 0000483 244.6995 291.7289 1.00310646 84255
Epoch: 15. Apr. 2026 • Age: 8 hours

Aktueller Status

Höhe 35775.6 km
Geschwindigkeit 3.08 km/s
Subsatellitenpunkt -7.81°S, 70.74°E
Startdatum 24. Nov. 2003
Alter 22.3 years
Typ other

Technische Details

Klassifizierung Payload
Masse 1326.00 kg
Trockenmasse 1206.00 kg
Gesamtmasse 1326.00 kg
Länge 2.00 m
Durchmesser 2.00 m
Spannweite 12.00 m
Form Box + 2 Pan
Hersteller RKKE
Bus-Typ Yamal
Phasenstatus In Orbit
Besitzer/Staat GAZC/RU

Most Searched